Torna al catalogo

STARLINK-31379

AttivoComunicazioniVLEO
NORAD 58984·PAYLOAD·🇺🇸 United States

Lanciato Feb 15, 2024 da Vandenberg Space Force Base

Loading…

Prossimi Passaggi (prossime 24 ore)

TLE

AggiornatoSource: CelesTrak SupGP

Epoca: Sep 15, 2026, 03:32 UTC

1 58984C 24031V   26258.14770833  .00044657  00000+0  13194-2 0  2583
2 58984  53.1571 134.6605 0001290  81.1944  94.7534 15.34369211    10

Traccia STARLINK-31379 in tempo reale con AllMySat

Download on the App Store